Time,TemperatureF,DewpointF,PressureIn,WindDirection,WindDirectionDegrees,WindSpeedMPH,WindSpeedGustMPH,Humidity,HourlyPrecipIn,Conditions,Clouds,dailyrainin,SoftwareType,DateUTC
2013-07-07 00:00:00,58.0,-99.9,-100.00,SSW,198,70.0,-999.0,-999,-99.99,,,0.01,,2013-07-07 06:00:00,
2013-07-07 00:52:00,58.0,-99.9,-100.00,SSW,198,70.0,-999.0,-999,-99.99,,,0.01,,2013-07-07 06:52:00,
2013-07-07 01:00:00,59.0,-99.9,-100.00,North,-999,-999.0,-999.0,-999,-99.99,,,0.01,,2013-07-07 07:00:00,
2013-07-07 02:00:00,52.0,-99.9,-100.00,WSW,254,101.0,-999.0,-999,-99.99,,,0.00,,2013-07-07 08:00:00,
2013-07-07 02:53:00,52.0,-99.9,-100.00,WSW,254,101.0,-999.0,-999,-99.99,,,0.00,,2013-07-07 08:53:00,
2013-07-07 03:00:00,51.0,-99.9,-100.00,NW,305,109.0,-999.0,-999,-99.99,,,0.00,,2013-07-07 09:00:00,
2013-07-07 04:00:00,50.0,-99.9,-100.00,NW,311,108.0,-999.0,-999,-99.99,,,0.00,,2013-07-07 10:00:00,
2013-07-07 04:52:00,50.0,-99.9,-100.00,NW,311,108.0,-999.0,-999,-99.99,,,0.00,,2013-07-07 10:52:00,
2013-07-07 05:00:00,48.0,-99.9,-100.00,NW,313,106.0,-999.0,-999,-99.99,,,0.00,,2013-07-07 11:00:00,
2013-07-07 06:00:00,52.0,-99.9,-100.00,WNW,293,106.0,-999.0,-999,-99.99,,,0.00,,2013-07-07 12:00:00,
2013-07-07 07:00:00,57.0,-99.9,-100.00,WSW,243,89.0,-999.0,-999,-99.99,,,0.00,,2013-07-07 13:00:00,
2013-07-07 07:53:00,57.0,-99.9,-100.00,WSW,243,89.0,-999.0,-999,-99.99,,,0.00,,2013-07-07 13:53:00,
2013-07-07 08:00:00,58.0,-99.9,-100.00,SSW,203,78.0,-999.0,-999,-99.99,,,0.00,,2013-07-07 14:00:00,
2013-07-07 08:53:00,58.0,-99.9,-100.00,SSW,203,78.0,-999.0,-999,-99.99,,,0.00,,2013-07-07 14:53:00,
2013-07-07 09:00:00,63.0,-99.9,-100.00,South,186,72.0,-999.0,-999,-99.99,,,0.00,,2013-07-07 15:00:00,
2013-07-07 09:52:00,63.0,-99.9,-100.00,South,186,72.0,-999.0,-999,-99.99,,,0.00,,2013-07-07 15:52:00,
2013-07-07 10:00:00,65.0,-99.9,-100.00,South,175,64.0,-999.0,-999,-99.99,,,0.00,,2013-07-07 16:00:00,
2013-07-07 11:00:00,67.0,-99.9,-100.00,SSE,147,58.0,-999.0,-999,-99.99,,,0.00,,2013-07-07 17:00:00,
2013-07-07 12:00:00,69.0,-99.9,-100.00,SE,137,53.0,-999.0,-999,-99.99,,,0.00,,2013-07-07 18:00:00,
2013-07-07 12:53:00,69.0,-99.9,-100.00,SE,137,53.0,-999.0,-999,-99.99,,,0.00,,2013-07-07 18:53:00,
2013-07-07 13:00:00,74.0,-99.9,-100.00,ESE,117,48.0,-999.0,-999,-99.99,,,-99.99,,2013-07-07 19:00:00,
2013-07-07 13:54:00,74.0,-99.9,-100.00,ESE,117,48.0,-999.0,-999,-99.99,,,-99.99,,2013-07-07 19:54:00,
2013-07-07 14:00:00,74.0,-99.9,-100.00,ESE,110,42.0,-999.0,-999,-99.99,,,0.00,,2013-07-07 20:00:00,
2013-07-07 14:53:00,74.0,-99.9,-100.00,ESE,110,42.0,-999.0,-999,-99.99,,,0.00,,2013-07-07 20:53:00,
2013-07-07 15:00:00,76.0,-99.9,-100.00,ESE,105,39.0,-999.0,-999,-99.99,,,-99.99,,2013-07-07 21:00:00,
2013-07-07 15:53:00,76.0,-99.9,-100.00,ESE,105,39.0,-999.0,-999,-99.99,,,-99.99,,2013-07-07 21:53:00,
2013-07-07 16:00:00,77.0,-99.9,-100.00,East,96,37.0,-999.0,-999,-99.99,,,0.00,,2013-07-07 22:00:00,
2013-07-07 16:54:00,77.0,-99.9,-100.00,East,96,37.0,-999.0,-999,-99.99,,,0.00,,2013-07-07 22:54:00,
2013-07-07 17:00:00,73.0,-99.9,-100.00,East,99,40.0,-999.0,-999,-99.99,,,0.00,,2013-07-07 23:00:00,
2013-07-07 17:53:00,73.0,-99.9,-100.00,East,99,40.0,-999.0,-999,-99.99,,,0.00,,2013-07-07 23:53:00,
2013-07-07 18:00:00,73.0,-99.9,-100.00,East,92,34.0,-999.0,-999,-99.99,,,0.00,,2013-07-08 00:00:00,
2013-07-07 18:53:00,73.0,-99.9,-100.00,East,92,34.0,-999.0,-999,-99.99,,,0.00,,2013-07-08 00:53:00,
2013-07-07 19:00:00,69.0,-99.9,-100.00,ESE,122,53.0,-999.0,-999,-99.99,,,0.00,,2013-07-08 01:00:00,
2013-07-07 20:00:00,63.0,-99.9,-100.00,South,187,70.0,-999.0,-999,-99.99,,,0.00,,2013-07-08 02:00:00,
2013-07-07 20:52:00,63.0,-99.9,-100.00,South,187,70.0,-999.0,-999,-99.99,,,0.00,,2013-07-08 02:52:00,
2013-07-07 21:00:00,58.0,-99.9,-100.00,SSW,212,76.0,-999.0,-999,-99.99,,,0.00,,2013-07-08 03:00:00,
2013-07-07 21:52:00,58.0,-99.9,-100.00,SSW,212,76.0,-999.0,-999,-99.99,,,0.00,,2013-07-08 03:52:00,
2013-07-07 22:00:00,57.0,-99.9,-100.00,SW,218,76.0,-999.0,-999,-99.99,,,0.00,,2013-07-08 04:00:00,
2013-07-07 23:00:00,57.0,-99.9,-100.00,SW,229,83.0,-999.0,-999,-99.99,,,0.00,,2013-07-08 05:00:00,
2013-07-07 23:43:00,57.0,-99.9,-100.00,SW,229,83.0,-999.0,-999,-99.99,,,0.00,,2013-07-08 05:43:00,
2013-07-07 23:53:00,57.0,-99.9,-100.00,SW,229,83.0,-999.0,-999,-99.99,,,0.00,,2013-07-08 05:53:00,